[[{"header":{"parameterUnit":"m.s-1","parameterCategory":1,"la1":30.2991,"la2":30.254,"lo1":-89.0895,"lo2":-89.0444,"dy":0.0017,"dx":0.0017,"nx":28,"ny":28,"refTime":"2025-08-27T03:00:00:Z","depth":0,"parameterNumber":2,"parameterNumberName":"U-component_of_WINDS"},"data":[0,0,0,0,0,0,0,0,0,0,0,0,0,0,0,0,0,0,0,0,0,0,0,0,0,0,0,0,0,0,0,0,0,0,0,0,0,0,0,0,0,0,0,0,0,0,0,0,0,0,0,0,0,0,0,0,0,0,-0.8233,-0.8232,0,-0.812,-0.8118,-0.8117,-0.8009,-0.8008,-0.8007,-0.8005,-0.789,-0.7888,-0.7886,0,0,0,0,0,0,0,0,0,0,0,0,0,-0.8358,-0.8356,-0.8233,-0.8232,-0.823,-0.812,-0.8118,-0.8117,-0.801,-0.8008,-0.8006,-0.8005,-0.789,-0.7888,-0.7886,0,0,0,0,0,0,0,0,0,0,0,0,0,-0.828,-0.8356,-0.8233,-0.8163,-0.8156,-0.812,-0.8118,-0.8116,-0.801,-0.8008,-0.8006,-0.8004,-0.7891,-0.7888,-0.7886,-0.791,0,0,-0.7878,-0.7876,0,0,0,0,0,0,0,0,-0.8285,-0.8276,-0.8175,-0.8168,-0.816,-0.8076,-0.812,-0.8047,-0.801,-0.8065,-0.8005,-0.8003,-0.7954,-0.7946,-0.7929,-0.7905,-0.79,-0.7877,-0.7876,-0.7874,-0.7874,0,0,0,0,0,0,0,-0.829,-0.828,-0.8188,-0.8174,-0.8164,-0.8138,-0.8125,-0.8106,-0.8022,-0.806,-0.8052,-0.804,-0.7949,-0.7932,-0.7925,-0.7898,-0.7877,-0.7875,-0.7873,-0.7872,-0.7891,-0.7893,0,0,0,0,0,0,-0.8306,-0.8285,-0.8192,-0.8185,-0.8218,-0.8138,-0.8123,-0.8105,-0.8022,-0.8008,-0.8042,-0.8036,-0.7937,-0.7929,-0.7921,-0.7946,-0.7875,-0.7872,-0.787,-0.7889,-0.7891,-0.7893,0,0,0,0,0,0,-0.8309,-0.8299,-0.8196,-0.8233,-0.8218,-0.8138,-0.8119,-0.8104,-0.8087,-0.8009,-0.7993,-0.804,-0.7935,-0.7925,-0.7914,-0.794,-0.7871,-0.7868,-0.7886,-0.7889,-0.7892,-0.7995,0,0,0,0,0,0,-0.8313,-0.8301,-0.8309,-0.8234,-0.8216,-0.8191,-0.812,-0.8103,-0.8082,-0.8073,-0.8002,-0.7989,-0.7933,-0.7919,-0.7912,-0.7935,-0.7866,-0.7883,-0.7888,-0.7891,-0.7989,-0.8001,-0.8012,0,0,0,0,0,-0.8318,-0.8342,-0.831,-0.8299,-0.8224,-0.8193,-0.8183,-0.8118,-0.8085,-0.8093,-0.8043,-0.7991,-0.7938,-0.7919,-0.7909,-0.7933,-0.7881,-0.7886,-0.7891,-0.7984,-0.7999,-0.8012,0,0,0,0,0,0,-0.8422,-0.8331,-0.8294,-0.8294,-0.8252,-0.8175,-0.8183,-0.8136,-0.8103,-0.8096,-0.8017,-0.8002,-0.8001,-0.7965,-0.7945,-0.7953,-0.7903,-0.7906,-0.7977,-0.799,-0.8002,-0.8011,-0.7864,0,0,0,0,0,-0.8444,-0.8426,-0.8347,-0.8355,-0.8336,-0.8264,-0.8247,-0.8201,-0.8155,-0.8137,-0.8085,-0.8043,-0.8017,-0.8001,-0.7973,-0.7983,-0.7967,-0.7995,-0.8006,-0.8016,-0.802,-0.8025,-0.8037,-0.7909,-0.7909,-0.7909,0,0,-0.8491,-0.8439,-0.8432,-0.8375,-0.8337,-0.8321,-0.8249,-0.8234,-0.8222,-0.8134,-0.8122,-0.8083,-0.803,-0.8031,-0.8029,-0.8001,-0.8052,-0.8022,-0.803,-0.8029,-0.8031,-0.8044,-0.8055,-0.7912,-0.7912,-0.7911,0,0,-0.8569,-0.8527,-0.853,-0.8494,-0.8437,-0.8389,-0.839,-0.832,-0.8291,-0.8277,-0.8212,-0.8196,-0.8152,-0.8118,-0.8095,-0.8162,-0.8113,-0.8154,-0.8215,-0.8221,-0.8231,-0.824,-0.8265,-0.8275,-0.8158,-0.8159,-0.8159,0,-0.8635,-0.8607,-0.8537,-0.8527,-0.8504,-0.8424,-0.8427,-0.8396,-0.8333,-0.832,-0.829,-0.8235,-0.8193,-0.8186,-0.8203,-0.8186,-0.8186,-0.8163,-0.8235,-0.8243,-0.825,-0.8274,-0.8284,-0.8164,-0.8164,-0.8163,-0.8162,0,-0.8692,-0.8674,-0.8683,-0.8625,-0.8603,-0.86,-0.853,-0.8517,-0.8473,-0.8428,-0.8416,-0.8364,-0.8325,-0.8319,-0.8276,-0.8306,-0.8291,-0.8249,-0.8198,-0.8269,-0.829,-0.8299,-0.8172,-0.817,-0.8168,-0.8167,0,0,-0.8831,-0.8736,-0.8741,-0.8715,-0.8647,-0.8632,-0.8626,-0.8588,-0.8579,-0.8538,-0.8532,-0.8498,-0.8459,-0.8433,-0.8385,-0.839,-0.8449,-0.8347,-0.8345,-0.837,-0.8483,-0.8516,-0.8528,-0.8416,-0.8418,-0.8419,-0.8488,0,-0.8899,-0.8883,-0.882,-0.8823,-0.8807,-0.8731,-0.8726,-0.8685,-0.8643,-0.8624,-0.8577,-0.8555,-0.8505,-0.8489,-0.849,-0.8442,-0.8471,-0.8436,-0.8412,-0.8412,-0.8429,-0.8538,-0.8573,-0.8641,-0.8495,-0.8497,-0.8498,0,-0.8976,-0.8942,-0.8943,-0.8878,-0.8869,-0.8865,-0.8826,-0.8808,-0.8761,-0.873,-0.8702,-0.8649,-0.8639,-0.859,-0.8577,-0.8554,-0.8541,-0.8516,-0.8517,-0.8513,-0.846,-0.854,-0.866,-0.8672,-0.8509,-0.8509,-0.8508,0,-0.9081,-0.9035,-0.903,-0.901,-0.8933,-0.8933,-0.8901,-0.8851,-0.8833,-0.8799,-0.8786,-0.8752,-0.8733,-0.8708,-0.8648,-0.8617,-0.8642,-0.8587,-0.8618,-0.862,-0.8628,-0.8628,-0.875,-0.8616,-0.8616,-0.8616,-0.8615,0,-0.9164,-0.9168,-0.9076,-0.9074,-0.9077,-0.9006,-0.9011,-0.8972,-0.8929,-0.8918,-0.885,-0.8842,-0.8761,-0.8744,-0.8697,-0.8694,-0.8686,-0.8662,-0.865,-0.8669,-0.8673,-0.866,-0.8655,-0.8618,-0.8618,-0.8617,-0.8617,0,-0.9282,-0.922,-0.9211,-0.9139,-0.9122,-0.9128,-0.9067,-0.9062,-0.9016,-0.9004,-0.8997,-0.8926,-0.8902,-0.8839,-0.8799,-0.8767,-0.8779,-0.8755,-0.8796,-0.8788,-0.8823,-0.8822,-0.8943,-0.8956,-0.8813,-0.8814,-0.8815,0,-0.934,-0.9342,-0.9271,-0.9259,-0.9231,-0.9212,-0.9193,-0.9123,-0.9106,-0.9053,-0.9056,-0.9027,-0.9,-0.8966,-0.8912,-0.8881,-0.8857,-0.8901,-0.8852,-0.8872,-0.886,-0.8862,-0.8863,-0.8913,-0.8915,-0.8916,-0.8918,0,-0.9451,-0.9421,-0.9396,-0.9362,-0.9341,-0.931,-0.9276,-0.927,-0.9192,-0.9177,-0.9152,-0.9132,-0.9091,-0.9064,-0.9026,-0.8993,-0.8944,-0.8933,-0.8939,-0.896,-0.8985,-0.8975,-0.8827,-0.8931,-0.893,-0.8929,-0.8928,-0.8928,-0.9542,-0.9541,-0.9491,-0.9467,-0.9434,-0.9404,-0.9397,-0.9351,-0.9329,-0.9291,-0.925,-0.9231,-0.9185,-0.9128,-0.9099,-0.9084,-0.9057,-0.9065,-0.9067,-0.9071,-0.9081,-0.8986,-0.9076,-0.9076,-0.9075,-0.9075,-0.9074,0,-0.9651,-0.9616,-0.9594,-0.9548,-0.953,-0.9483,-0.9443,-0.9431,-0.9415,-0.9376,-0.9351,-0.9324,-0.9298,-0.9242,-0.9211,-0.9209,-0.9186,-0.9204,-0.9204,-0.9198,-0.9105,-0.9105,-0.9224,-0.9224,-0.9224,-0.9224,-0.9224,-0.9223,-0.9706,-0.9702,-0.9666,-0.9647,-0.9611,-0.9591,-0.9573,-0.9545,-0.9514,-0.9487,-0.9465,-0.9428,-0.9383,-0.9349,-0.9323,-0.9307,-0.93,-0.9326,-0.9304,-0.9218,-0.9204,-0.9191,-0.919,-0.9325,-0.9325,-0.9398,-0.9398,-0.9399]},{"header":{"parameterUnit":"m.s-1","parameterCategory":1,"la1":30.2991,"la2":30.254,"lo1":-89.0895,"lo2":-89.0444,"dy":0.0017,"dx":0.0017,"nx":28,"ny":28,"refTime":"2025-08-27T03:00:00:Z","depth":0,"parameterNumber":3,"parameterNumberName":"V-component_of_WINDS"},"data":[0,0,0,0,0,0,0,0,0,0,0,0,0,0,0,0,0,0,0,0,0,0,0,0,0,0,0,0,0,0,0,0,0,0,0,0,0,0,0,0,0,0,0,0,0,0,0,0,0,0,0,0,0,0,0,0,0,0,1.4584,1.4583,0,1.4523,1.4522,1.4522,1.4473,1.4472,1.4472,1.4471,1.4407,1.4406,1.4404,0,0,0,0,0,0,0,0,0,0,0,0,0,1.4656,1.4654,1.4584,1.4583,1.4582,1.4523,1.4522,1.4521,1.4473,1.4472,1.4472,1.4471,1.4407,1.4406,1.4404,0,0,0,0,0,0,0,0,0,0,0,0,0,1.4613,1.4654,1.4584,1.4551,1.4548,1.4523,1.4522,1.4521,1.4473,1.4472,1.4472,1.4471,1.4408,1.4406,1.4404,1.4407,0,0,1.4398,1.4397,0,0,0,0,0,0,0,0,1.4615,1.461,1.4557,1.4553,1.4549,1.4505,1.4524,1.4483,1.4473,1.4501,1.4471,1.4471,1.444,1.4435,1.4425,1.4404,1.4401,1.4398,1.4397,1.4396,1.4396,0,0,0,0,0,0,0,1.4618,1.4612,1.456,1.4556,1.4551,1.4538,1.4532,1.4516,1.4475,1.4499,1.4495,1.4489,1.4438,1.4427,1.4423,1.44,1.4398,1.4396,1.4395,1.4394,1.4375,1.4376,0,0,0,0,0,0,1.4626,1.4615,1.4562,1.4558,1.4581,1.4538,1.453,1.452,1.4475,1.4468,1.4489,1.4487,1.4431,1.4426,1.4421,1.4419,1.4396,1.4394,1.4393,1.4374,1.4375,1.4376,0,0,0,0,0,0,1.4628,1.4622,1.4564,1.4585,1.4577,1.4537,1.4526,1.4519,1.4508,1.4468,1.4461,1.4486,1.443,1.4424,1.441,1.4416,1.4393,1.4392,1.4374,1.4375,1.4376,1.4417,0,0,0,0,0,0,1.463,1.4623,1.4624,1.4586,1.4576,1.4555,1.4527,1.4518,1.4506,1.4501,1.4463,1.4456,1.4429,1.4413,1.4408,1.4413,1.439,1.4373,1.4374,1.4375,1.4415,1.442,1.4423,0,0,0,0,0,1.4633,1.4639,1.4625,1.4618,1.4577,1.4556,1.455,1.4519,1.4506,1.4507,1.4481,1.4458,1.4417,1.4412,1.4406,1.4411,1.4372,1.4374,1.4375,1.4413,1.4419,1.4423,0,0,0,0,0,0,1.4678,1.4633,1.4617,1.461,1.4587,1.4548,1.4547,1.4526,1.4506,1.4503,1.4465,1.4457,1.4447,1.4428,1.4423,1.441,1.4392,1.4392,1.4423,1.4427,1.4432,1.4435,1.4389,0,0,0,0,0,1.4688,1.4675,1.4636,1.4633,1.4623,1.4587,1.4577,1.4555,1.4529,1.4519,1.4492,1.4468,1.4449,1.4437,1.4418,1.4413,1.4403,1.4413,1.4417,1.4421,1.4421,1.4414,1.4418,1.4381,1.4381,1.4381,0,0,1.4706,1.468,1.4674,1.4642,1.4621,1.4608,1.4579,1.4567,1.4556,1.4517,1.4502,1.4482,1.4452,1.4442,1.4436,1.4425,1.4429,1.4422,1.4426,1.4423,1.4416,1.4419,1.4423,1.4382,1.4381,1.4381,0,0,1.4733,1.4713,1.4707,1.4688,1.4657,1.4634,1.4633,1.4596,1.4581,1.4566,1.4536,1.4522,1.4492,1.4471,1.4456,1.4475,1.4452,1.447,1.449,1.4484,1.4487,1.449,1.4494,1.4496,1.447,1.447,1.447,0,1.4759,1.4739,1.4707,1.4696,1.4682,1.4647,1.4641,1.4623,1.4588,1.4578,1.4568,1.4528,1.4505,1.4489,1.4493,1.4483,1.4479,1.4473,1.449,1.4492,1.4493,1.4497,1.4499,1.4473,1.4472,1.4472,1.4472,0,1.4772,1.4758,1.4757,1.4724,1.4711,1.4702,1.4668,1.4658,1.4637,1.4614,1.4599,1.457,1.4544,1.4539,1.4519,1.4519,1.4513,1.4497,1.4477,1.45,1.4502,1.4504,1.4476,1.4475,1.4474,1.4474,0,0,1.4824,1.4774,1.4774,1.4758,1.4722,1.471,1.4699,1.4674,1.4665,1.4642,1.4631,1.4606,1.459,1.4573,1.4551,1.4546,1.456,1.4529,1.4528,1.4534,1.4556,1.4567,1.4569,1.4545,1.4545,1.4546,1.4558,0,1.4843,1.4822,1.4793,1.4782,1.4767,1.4734,1.4725,1.4701,1.468,1.4663,1.4639,1.4621,1.4603,1.4592,1.4586,1.4559,1.4563,1.4558,1.4532,1.4532,1.4539,1.4571,1.4583,1.4596,1.4559,1.4559,1.4559,0,1.4862,1.4841,1.4828,1.4792,1.4785,1.4777,1.4751,1.4737,1.4709,1.4693,1.4675,1.465,1.4636,1.462,1.4598,1.4596,1.4583,1.4569,1.4568,1.4563,1.4545,1.4565,1.46,1.4601,1.4561,1.4561,1.4561,0,1.4898,1.4867,1.4855,1.4842,1.4801,1.4796,1.4778,1.4749,1.4736,1.4713,1.4703,1.4679,1.4666,1.4647,1.4616,1.4607,1.4597,1.4579,1.4582,1.4583,1.458,1.458,1.4611,1.4576,1.4576,1.4575,1.4575,0,1.4921,1.4914,1.487,1.4862,1.4853,1.482,1.4811,1.4791,1.4765,1.4752,1.4722,1.471,1.4671,1.4654,1.463,1.4615,1.4609,1.4595,1.4588,1.4596,1.4598,1.4586,1.4584,1.4576,1.4576,1.4576,1.4576,0,1.4959,1.493,1.4914,1.4876,1.4866,1.4861,1.4828,1.4818,1.4796,1.4779,1.4773,1.4737,1.4715,1.4683,1.4651,1.4635,1.4623,1.4613,1.4632,1.4628,1.4632,1.4631,1.4655,1.4656,1.4622,1.4623,1.4623,0,1.4974,1.4968,1.493,1.4919,1.4902,1.4886,1.4872,1.4839,1.4826,1.4793,1.4787,1.4763,1.4742,1.4709,1.4679,1.4654,1.4642,1.4653,1.4638,1.4646,1.464,1.464,1.4638,1.4655,1.4656,1.4656,1.4657,0,1.5004,1.499,1.4971,1.4947,1.4932,1.4911,1.4889,1.4882,1.4844,1.483,1.4808,1.4792,1.476,1.4736,1.4708,1.4688,1.4665,1.4662,1.4661,1.4668,1.4678,1.4671,1.4639,1.4661,1.466,1.466,1.466,1.466,1.5029,1.5022,1.4993,1.4973,1.4954,1.4934,1.4923,1.4898,1.488,1.4851,1.4833,1.4812,1.4783,1.4742,1.4724,1.4705,1.4696,1.4695,1.4694,1.4694,1.4696,1.4683,1.47,1.47,1.47,1.47,1.47,0,1.5055,1.5036,1.5018,1.4988,1.4972,1.4954,1.4929,1.4916,1.4898,1.4873,1.4853,1.4827,1.4804,1.4772,1.4746,1.4737,1.4726,1.4731,1.4731,1.4726,1.4707,1.471,1.4741,1.4741,1.4741,1.4741,1.4741,1.4741,1.5067,1.5052,1.5035,1.501,1.499,1.4969,1.4956,1.4937,1.4917,1.489,1.487,1.485,1.4822,1.4794,1.4771,1.4762,1.4753,1.4761,1.4749,1.4731,1.4728,1.4724,1.4726,1.476,1.476,1.4769,1.4769,1.4769]}]]